Location: *
(48.8780°N, 19.2358°E)
Time: 11:46:03
(UTC+00:00)

STARLINK-24 - Pass Details

Date: 18 October 2019
Orbit: 550 x 553 km, 53.0° (Epoch: 19 November)

Event Time Altitude Azimuth Distance (km) Brightness Sun altitude
Rises 17:42:39 0° 274° (W) 2,721 8.8 -19.5°
Reaches altitude 10° 17:44:57 10° 280° (W) 1,828 7.5 -19.9°
Maximum altitude 17:48:59 47° 356° (N) 736 4.3 -20.5°
Enters shadow 17:49:53 40° 34° (NE) 828 4.3 -20.7°
